Showing default

METEOR 1-5, 4419

Orbit data source: Space-Track

METEOR 1-5, 4419 is a Commonwealth of Independent States-origin payload satellite in LEO that was launched on Tue, 23 Jun 1970 UTC via a VOSTOK 8A92M launch vehicle from the Plesetsk Missile And Space Complex (PKMTR). Payload-class satellites include a variety of spacecraft equipped with specific instruments for various scientific and technological missions. These include communications satellites like Starlink; space stations such as the ISS; scientific satellites like the Hubble; Earth observation satellites from companies like Planet Labs, Umbra, and HawkEye 360; GPS; miniature CubeSats for education and research; and military/defense satellites.

Loading next visibility...
Identifier
4419, 1970-047A
Orbit
LEO
Country
Flag of CISCIS
Related business
Manufacturer
VNIIEM
Mission
Spacecraft
Bus & Motor
METEOR, Unknown motor
Mass
1,280 kg wet, 1,280 kg dry
Launch date (UTC)
1970-06-23 (56 years ago)
Launch vehicle
VOSTOK 8A92M
Launch site
Plesetsk Missile And Space Complex (PKMTR)
Object type
Payload
Rocket body
Debris
Shape & HBR
Unknown
Radar Cross Section
Large (>1 m²)

Expand to show TLE details & history
Last TLE update: 2 days ago

TLE from 2 days ago
0 METEOR 1-5
1  4419U 70047A   26171.46667148  .00000056  00000-0  21371-4 0  9994
2  4419  81.2162 232.5110 0040176  46.3040 314.1450 14.16178823889205
Epoch: 2026-06-20T11:12Z
TLE epoch observation values (Epoch: 2026-06-20T11:12:00.415Z)
Latitude
-0.00012°
Longitude
155.82837°
Altitude
821.075 km
Speed
7.453 km/s
True Right ascension
15h 30m 02s
True Declination
0° 00' 00"
Sunlit
Object was in full shadow at epoch
Visualization orbit readout
Latitude
Unknown
Longitude
Unknown
Altitude
Unknown
Speed
Unknown
Apparent Right ascension
Unknown
Apparent Declination
Unknown
Sunlit
N/A
Visualization observer readout
Local Sidereal Time
23:07:55
Azimuth
Unknown
Elevation
Unknown
Doppler factor
Unknown
Orbital elements
Apogee altitude
864.453 km
Perigee altitude
806.491 km
Semi-major axis
7,213.609 km
Eccentricity
0.00402
Inclination
81.2162°
RAAN
232.511°
Arg. of periapsis
46.304°
True anomaly
313.81348°
Mean anomaly
314.145°
Eccentric anomaly
313.97936°
Mean motion
3.54254 °/min
Orbital period
101.62 mins
BSTAR
0.000021371
Loading maneuver chart data...
Computing Atmospheric mass density...
Loading historical data...
Loading historical data...
Loading historical data...
Loading historical data...
Loading historical data...
Loading historical data...
Loading historical data...

Documentation

Showing up to 5 results
|